FW3157 Weather Reports


time (UTC)temp
C
wind
direction
speed
KPH
gust
KPH
rain 1hr
cm
rain 24hr
cm
rain mn
cm
humidity
%
barometer
mb
20260507075728 18 250 4.8 8.0 0.00 0.00 0.00 72 1017.7
20260507075229 18 231 3.2 8.0 0.00 0.00 0.00 71 1017.6
20260507074728 19 278 1.6 4.8 0.00 0.00 0.00 70 1017.5
20260507074229 18 283 1.6 3.2 0.00 0.00 0.00 70 1017.4
20260507073728 18 290 0.0 0.0 0.00 0.00 0.00 70 1017.4
20260507073228 18 290 0.0 0.0 0.00 0.00 0.00 72 1017.2
20260507072728 18 290 0.0 3.2 0.00 0.00 0.00 73 1017.3
20260507072456 18 290 1.6 6.4 0.00 0.00 0.00 72 1017.3
20260507071954 18 290 3.2 6.4 0.00 0.00 0.00 71 1017.3
20260507071226 18 304 1.6 6.4 0.00 0.00 0.00 71 1017.3
20260507070724 18 319 1.6 4.8 0.00 0.00 0.00 71 1017.3
20260507070227 18 10 1.6 4.8 0.00 0.00 0.00 72 1017.2
20260507065724 18 282 1.6 4.8 0.00 0.00 0.00 73 1017.2
20260507065449 18 282 3.2 4.8 0.00 0.00 0.00 73 1017.4
20260507065213 18 266 3.2 6.4 0.00 0.00 0.00 72 1017.5
20260507064226 18 254 3.2 6.4 0.00 0.00 0.00 72 1017.5
20260507063723 18 238 3.2 8.0 0.00 0.00 0.00 72 1017.5
20260507063223 18 287 3.2 8.0 0.00 0.00 0.00 71 1017.5
20260507062715 18 249 4.8 11.3 0.00 0.00 0.00 71 1017.5
20260507062208 18 252 4.8 11.3 0.00 0.00 0.00 71 1017.6
20260507061702 18 278 3.2 6.4 0.00 0.00 0.00 70 1017.5
20260507061157 18 269 3.2 8.0 0.00 0.00 0.00 71 1017.3
20260507060651 18 211 3.2 8.0 0.00 0.00 0.00 70 1017.3
20260507060406 18 262 3.2 6.4 0.00 0.00 0.00 70 1017.2
20260507055638 18 214 1.6 6.4 0.00 0.00 0.00 70 1017.2
20260507055355 18 304 1.6 4.8 0.00 0.00 0.00 70 1017.0
20260507054626 18 304 1.6 3.2 0.00 0.00 0.00 70 1017.0
20260507054121 18 304 1.6 4.8 0.00 0.00 0.00 71 1017.1
20260507053615 18 304 1.6 4.8 0.00 0.00 0.00 70 1017.0
20260507053107 18 304 1.6 3.2 0.00 0.00 0.00 67 1017.0
20260507052602 18 304 0.0 3.2 0.00 0.00 0.00 67 1017.0
20260507052100 19 304 0.0 3.2 0.00 0.00 0.00 65 1016.9
20260507051820 19 304 0.0 0.0 0.00 0.00 0.00 67 1016.7
20260507051059 18 304 0.0 0.0 0.00 0.00 0.00 68 1016.6
20260507050559 18 304 0.0 1.6 0.00 0.00 0.00 69 1016.7
20260507050322 17 304 0.0 1.6 0.00 0.00 0.00 70 1016.9
20260507045556 17 304 0.0 1.6 0.00 0.00 0.00 69 1016.7
20260507045055 17 304 0.0 1.6 0.00 0.00 0.00 70 1016.9
20260507044555 17 304 0.0 3.2 0.00 0.00 0.00 71 1016.6
20260507044314 17 304 0.0 3.2 0.00 0.00 0.00 72 1016.6
20260507043551 17 304 0.0 1.6 0.00 0.00 0.00 73 1016.6
20260507043052 17 304 0.0 1.6 0.00 0.00 0.00 74 1016.6
20260507042551 17 304 0.0 1.6 0.00 0.00 0.00 74 1016.7
20260507042050 17 304 0.0 0.0 0.00 0.00 0.00 76 1016.7
20260507041547 16 304 0.0 1.6 0.00 0.00 0.00 77 1016.6
20260507041048 16 304 0.0 1.6 0.00 0.00 0.00 77 1016.6
20260507040547 16 304 0.0 1.6 0.00 0.00 0.00 78 1016.5
20260507040046 16 304 0.0 0.0 0.00 0.00 0.00 78 1016.5
20260507035546 16 304 0.0 3.2 0.00 0.00 0.00 78 1016.5
20260507035045 16 304 0.0 3.2 0.00 0.00 0.00 79 1016.4
20260507034539 15 304 1.6 4.8 0.00 0.00 0.00 80 1016.3
20260507034033 15 304 3.2 4.8 0.00 0.00 0.00 80 1016.3
20260507033527 15 304 3.2 4.8 0.00 0.00 0.00 80 1016.2
20260507033020 15 304 1.6 4.8 0.00 0.00 0.00 80 1016.2
20260507032515 15 304 0.0 1.6 0.00 0.00 0.00 79 1016.1
20260507032231 15 304 0.0 1.6 0.00 0.00 0.00 78 1016.2
20260507031502 16 304 0.0 1.6 0.00 0.00 0.00 78 1016.2
20260507030957 16 304 0.0 0.0 0.00 0.00 0.00 78 1016.2
20260507030452 16 304 0.0 0.0 0.00 0.00 0.00 78 1016.2
20260507030203 16 304 0.0 0.0 0.00 0.00 0.00 78 1016.1
20260507025440 16 304 0.0 0.0 0.00 0.00 0.00 78 1016.1
20260507024933 16 304 0.0 0.0 0.00 0.00 0.00 78 1016.1
20260507024653 16 304 0.0 0.0 0.00 0.00 0.00 78 1016.0
20260507023920 16 304 0.0 0.0 0.00 0.00 0.00 78 1016.0
20260507023415 16 304 0.0 0.0 0.00 0.00 0.00 78 1016.0
20260507022909 16 304 0.0 1.6 0.00 0.00 0.00 77 1015.9
20260507022623 16 304 1.6 3.2 0.00 0.00 0.00 77 1015.8
20260507022120 16 304 0.0 3.2 0.00 0.00 0.00 77 1015.7
20260507021351 16 304 0.0 1.6 0.00 0.00 0.00 78 1015.8
20260507020845 16 304 0.0 1.6 0.00 0.00 0.00 77 1015.9
20260507020338 16 304 0.0 1.6 0.00 0.00 0.00 77 1016.0
20260507015833 16 304 0.0 3.2 0.00 0.00 0.00 78 1015.9
20260507015326 16 304 0.0 3.2 0.00 0.00 0.00 78 1015.7
20260507015048 16 304 0.0 1.6 0.00 0.00 0.00 78 1015.7
20260507014314 16 304 0.0 1.6 0.00 0.00 0.00 78 1015.8
20260507013809 16 304 0.0 3.2 0.00 0.00 0.00 78 1015.7
20260507013303 16 304 1.6 3.2 0.00 0.00 0.00 78 1015.7
20260507012757 16 304 1.6 3.2 0.00 0.00 0.00 79 1015.7
20260507012251 16 304 1.6 4.8 0.00 0.00 0.00 81 1015.7
20260507011745 16 304 1.6 4.8 0.00 0.00 0.00 81 1015.7
20260507011239 16 304 1.6 4.8 0.00 0.00 0.00 81 1015.6
20260507010732 16 304 3.2 4.8 0.00 0.00 0.00 81 1015.6
20260507010227 16 304 1.6 3.2 0.00 0.00 0.00 81 1015.6
20260507005720 16 304 3.2 6.4 0.00 0.00 0.00 80 1015.6
20260507005214 16 304 3.2 6.4 0.00 0.00 0.00 80 1015.6
20260507004710 16 305 1.6 4.8 0.00 0.00 0.00 79 1015.6
20260507004206 16 305 0.0 3.2 0.00 0.00 0.00 78 1015.4
20260507003657 16 305 0.0 0.0 0.00 0.00 0.00 77 1015.3
20260507003151 16 305 0.0 0.0 0.00 0.00 0.00 77 1015.3
20260507002645 16 305 0.0 0.0 0.00 0.00 0.00 77 1015.3
20260507002409 16 305 0.0 3.2 0.00 0.00 0.00 77 1015.3
20260507001633 16 305 0.0 3.2 0.00 0.00 0.00 77 1015.3
20260507001126 16 305 0.0 3.2 0.00 0.00 0.00 77 1015.3
20260507000621 16 305 1.6 3.2 0.00 0.00 0.00 77 1015.3
20260507000115 16 305 1.6 4.8 0.00 0.00 0.00 78 1015.4
20260506235608 17 305 1.6 4.8 0.00 0.00 0.00 80 1015.5
20260506235328 17 305 1.6 4.8 0.00 0.00 0.00 81 1015.6
20260506234557 17 305 3.2 6.4 0.00 0.00 0.00 82 1015.6
20260506234051 17 305 3.2 6.4 0.00 0.00 0.00 82 1015.7
20260506233545 17 304 3.2 6.4 0.00 0.00 0.00 82 1015.8
20260506233045 17 305 1.6 4.8 0.00 0.00 0.00 82 1015.8
20260506232543 17 305 1.6 4.8 0.00 0.00 0.00 82 1015.8
20260506232041 17 305 1.6 4.8 0.00 0.00 0.00 82 1015.7
20260506231538 17 305 1.6 4.8 0.00 0.00 0.00 82 1015.8
20260506231258 17 305 1.6 4.8 0.00 0.00 0.00 82 1015.7
20260506230758 17 305 1.6 4.8 0.00 0.00 0.00 82 1015.7
20260506230303 17 305 1.6 3.2 0.00 0.00 0.00 82 1015.7
20260506225535 17 305 3.2 4.8 0.00 0.00 0.00 82 1015.7
20260506225035 17 305 3.2 4.8 0.00 0.00 0.00 82 1015.8
20260506224534 17 305 1.6 4.8 0.00 0.00 0.00 82 1015.9
20260506224033 17 305 1.6 4.8 0.00 0.00 0.00 82 1015.8
20260506223530 17 305 1.6 4.8 0.00 0.00 0.00 82 1015.8
20260506223030 17 305 1.6 4.8 0.00 0.00 0.00 82 1015.7
20260506222531 17 305 1.6 4.8 0.00 0.00 0.00 82 1015.8
20260506222030 17 305 1.6 4.8 0.00 0.00 0.00 82 1015.8
20260506221529 17 305 1.6 6.4 0.00 0.00 0.00 83 1015.8
20260506221029 17 305 1.6 6.4 0.00 0.00 0.00 83 1015.8
20260506220528 17 305 1.6 4.8 0.00 0.00 0.00 83 1015.7
20260506220028 17 305 3.2 6.4 0.00 0.00 0.00 84 1015.7
20260506215528 17 305 3.2 6.4 0.00 0.00 0.00 84 1015.8
20260506215028 17 305 3.2 6.4 0.00 0.00 0.00 84 1015.8
20260506214529 17 305 3.2 4.8 0.00 0.00 0.00 84 1015.7
20260506214029 17 305 3.2 8.0 0.00 0.00 0.00 84 1015.8
20260506213529 17 305 3.2 8.0 0.00 0.00 0.00 84 1015.9
20260506213029 17 305 3.2 6.4 0.00 0.00 0.00 85 1015.8
20260506212751 17 305 4.8 8.0 0.00 0.00 0.00 85 1015.8
20260506212028 17 305 4.8 8.0 0.00 0.00 0.00 85 1015.9
20260506211529 17 305 3.2 8.0 0.00 0.00 0.00 85 1015.9
20260506211029 17 305 3.2 8.0 0.00 0.00 0.00 85 1015.9
20260506210528 17 299 4.8 8.0 0.00 0.00 0.00 85 1015.9
20260506210029 17 303 4.8 9.7 0.00 0.00 0.00 85 1015.9
20260506205527 17 297 4.8 9.7 0.00 0.00 0.00 84 1016.1
20260506205027 17 273 3.2 8.0 0.00 0.00 0.00 84 1016.1
20260506204527 17 273 3.2 6.4 0.00 0.00 0.00 83 1016.0
20260506204024 17 273 3.2 6.4 0.00 0.00 0.00 83 1016.0
20260506203525 17 273 3.2 6.4 0.00 0.00 0.00 83 1015.9
20260506203019 17 273 1.6 4.8 0.00 0.00 0.00 83 1015.8
20260506202513 17 273 3.2 8.0 0.00 0.00 0.00 83 1015.8
20260506202013 17 273 3.2 8.0 0.00 0.00 0.00 83 1015.8
20260506201732 17 308 3.2 6.4 0.00 0.00 0.00 83 1015.7
20260506201012 17 301 1.6 6.4 0.00 0.00 0.00 83 1015.7
20260506200512 17 254 1.6 3.2 0.00 0.00 0.00 83 1015.7
20260506200013 17 253 1.6 6.4 0.00 0.00 0.00 82 1015.7
20260506195513 17 264 1.6 6.4 0.00 0.00 0.00 82 1015.8
20260506195013 17 259 1.6 4.8 0.00 0.00 0.00 83 1015.6
20260506194512 17 258 1.6 3.2 0.00 0.00 0.00 83 1015.5
20260506194012 17 258 1.6 3.2 0.00 0.00 0.00 82 1015.4
20260506193512 17 258 1.6 3.2 0.00 0.00 0.00 82 1015.4
20260506193013 17 258 1.6 3.2 0.00 0.00 0.00 82 1015.4
20260506192513 17 226 1.6 3.2 0.00 0.00 0.00 82 1015.4
20260506192012 17 226 1.6 3.2 0.00 0.00 0.00 82 1015.3
20260506191512 17 226 1.6 3.2 0.00 0.00 0.00 82 1015.3
20260506191013 17 226 1.6 3.2 0.00 0.00 0.00 81 1015.3
20260506190738 17 220 0.0 3.2 0.00 0.00 0.00 82 1015.3
20260506190013 17 220 1.6 4.8 0.00 0.00 0.00 81 1015.3
20260506185513 18 220 1.6 4.8 0.00 0.00 0.00 81 1015.2
20260506185013 18 221 0.0 3.2 0.00 0.00 0.00 81 1015.2
20260506184512 18 221 0.0 3.2 0.00 0.00 0.00 82 1015.1
20260506184013 18 221 0.0 3.2 0.00 0.00 0.00 81 1015.1
20260506183512 18 97 1.6 4.8 0.00 0.00 0.00 82 1015.0
20260506183012 18 97 0.0 4.8 0.00 0.00 0.00 82 1015.0
20260506182513 18 197 0.0 4.8 0.00 0.00 0.00 82 1014.9
20260506182012 18 198 1.6 4.8 0.00 0.00 0.00 81 1014.9
20260506181512 18 160 1.6 4.8 0.00 0.00 0.00 81 1014.8
20260506181012 18 150 3.2 4.8 0.00 0.00 0.00 81 1014.8
20260506180512 18 153 1.6 4.8 0.00 0.00 0.00 81 1014.7
20260506180012 18 103 1.6 8.0 0.00 0.00 0.00 81 1014.6
20260506175734 18 103 1.6 8.0 0.00 0.00 0.00 81 1014.5
20260506175010 18 123 1.6 8.0 0.00 0.00 0.00 81 1014.5
20260506174728 18 216 3.2 9.7 0.00 0.00 0.00 80 1014.4
20260506173957 18 140 3.2 11.3 0.00 0.00 0.00 80 1014.3
20260506173452 18 160 1.6 11.3 0.00 0.00 0.00 79 1014.3
20260506172945 18 205 1.6 11.3 0.00 0.00 0.00 79 1014.3
20260506172440 19 205 4.8 11.3 0.00 0.00 0.00 78 1014.3
20260506171933 19 95 4.8 11.3 0.00 0.00 0.00 77 1014.2
20260506171427 19 141 3.2 11.3 0.00 0.00 0.00 75 1014.2
20260506170925 20 141 4.8 11.3 0.00 0.00 0.00 75 1014.2
20260506170425 20 217 6.4 11.3 0.00 0.00 0.00 73 1014.1
20260506165924 20 174 6.4 11.3 0.00 0.00 0.00 72 1014.1
20260506165422 20 148 6.4 16.1 0.00 0.00 0.00 71 1014.1
20260506164923 21 220 4.8 16.1 0.00 0.00 0.00 70 1014.1
20260506164423 21 162 4.8 12.9 0.00 0.00 0.00 70 1014.1
20260506163920 21 234 6.4 12.9 0.00 0.00 0.00 69 1014.1
20260506163420 21 207 6.4 16.1 0.00 0.00 0.00 69 1014.1
20260506162921 21 224 8.0 20.9 0.00 0.00 0.00 69 1014.1
20260506162419 21 198 8.0 20.9 0.00 0.00 0.00 69 1014.1
20260506161919 21 224 4.8 16.1 0.00 0.00 0.00 66 1014.1
20260506161418 22 230 6.4 14.5 0.00 0.00 0.00 65 1014.1
20260506160917 22 208 6.4 14.5 0.00 0.00 0.00 64 1014.1
20260506160417 22 199 6.4 14.5 0.00 0.00 0.00 62 1014.1
20260506155916 22 254 8.0 14.5 0.00 0.00 0.00 60 1014.1
20260506155416 22 191 6.4 12.9 0.00 0.00 0.00 59 1014.0
20260506154916 23 202 6.4 12.9 0.00 0.00 0.00 58 1014.1
20260506154410 23 209 6.4 12.9 0.00 0.00 0.00 57 1014.2
20260506153903 23 224 6.4 14.5 0.00 0.00 0.00 57 1014.1
20260506153357 23 204 6.4 14.5 0.00 0.00 0.00 57 1014.2
20260506152852 23 153 4.8 14.5 0.00 0.00 0.00 55 1014.2
20260506152345 23 206 4.8 9.7 0.00 0.00 0.00 55 1014.2
20260506151840 23 258 4.8 9.7 0.00 0.00 0.00 54 1014.3
20260506151333 23 223 6.4 12.9 0.00 0.00 0.00 54 1014.2
20260506150829 23 218 6.4 14.5 0.00 0.00 0.00 54 1014.2
20260506150322 23 183 4.8 12.9 0.00 0.00 0.00 53 1014.3
20260506145816 24 202 4.8 12.9 0.00 0.00 0.00 52 1014.2
20260506145310 24 185 8.0 17.7 0.00 0.00 0.00 52 1014.3
20260506144804 24 213 6.4 17.7 0.00 0.00 0.00 51 1014.3
20260506144258 25 224 4.8 12.9 0.00 0.00 0.00 50 1014.3
20260506143752 24 208 6.4 14.5 0.00 0.00 0.00 50 1014.3
20260506143246 24 205 6.4 16.1 0.00 0.00 0.00 50 1014.3
20260506142740 24 233 6.4 16.1 0.00 0.00 0.00 50 1014.3
20260506142234 24 152 8.0 19.3 0.00 0.00 0.00 50 1014.4
20260506141727 25 274 8.0 19.3 0.00 0.00 0.00 48 1014.4
20260506141222 25 209 6.4 17.7 0.00 0.00 0.00 47 1014.4
20260506140716 25 203 4.8 17.7 0.00 0.00 0.00 45 1014.4
20260506140211 25 90 6.4 12.9 0.00 0.00 0.00 45 1014.4
20260506135704 25 233 6.4 14.5 0.00 0.00 0.00 47 1014.4
20260506135158 25 188 6.4 16.1 0.00 0.00 0.00 46 1014.5
20260506134652 25 219 6.4 16.1 0.00 0.00 0.00 46 1014.4
20260506134145 25 212 6.4 16.1 0.00 0.00 0.00 47 1014.4
20260506133640 24 209 8.0 16.1 0.00 0.00 0.00 48 1014.4
20260506133133 25 249 6.4 19.3 0.00 0.00 0.00 48 1014.6
20260506132629 25 211 8.0 19.3 0.00 0.00 0.00 47 1014.6
20260506132345 24 236 8.0 17.7 0.00 0.00 0.00 46 1014.6
20260506131616 24 148 6.4 17.7 0.00 0.00 0.00 48 1014.7
20260506131110 25 202 8.0 17.7 0.00 0.00 0.00 46 1014.8
20260506130827 25 236 6.4 16.1 0.00 0.00 0.00 46 1014.7
20260506130057 25 218 6.4 16.1 0.00 0.00 0.00 45 1014.8
20260506125551 25 278 6.4 16.1 0.00 0.00 0.00 45 1014.8
20260506125044 25 188 4.8 14.5 0.00 0.00 0.00 45 1014.8
20260506124538 25 154 6.4 14.5 0.00 0.00 0.00 45 1014.9
20260506124032 25 233 6.4 12.9 0.00 0.00 0.00 46 1015.0
20260506123526 25 226 6.4 14.5 0.00 0.00 0.00 47 1015.0
20260506123240 24 133 8.0 14.5 0.00 0.00 0.00 47 1015.0
20260506122514 24 274 8.0 16.1 0.00 0.00 0.00 47 1015.0
20260506122008 24 248 8.0 19.3 0.00 0.00 0.00 47 1015.1
20260506121502 24 216 6.4 19.3 0.00 0.00 0.00 46 1015.1
20260506121445 25 300 4.8 14.5 0.00 0.00 0.00 46 1015.2
20260506120456 25 250 3.2 14.5 0.00 0.00 0.00 45 1015.2
20260506120212 25 221 3.2 9.7 0.00 0.00 0.00 44 1015.2
20260506115720 24 246 4.8 11.3 0.00 0.00 0.00 46 1015.3
20260506114952 23 278 6.4 14.5 0.00 0.00 0.00 48 1015.3
20260506114452 23 218 6.4 14.5 0.00 0.00 0.00 49 1015.4
20260506113951 23 276 4.8 12.9 0.00 0.00 0.00 48 1015.5
20260506113450 23 223 6.4 12.9 0.00 0.00 0.00 50 1015.5
20260506112950 23 212 4.8 12.9 0.00 0.00 0.00 49 1015.5
20260506112450 23 264 4.8 12.9 0.00 0.00 0.00 52 1015.6
20260506111950 22 257 4.8 12.9 0.00 0.00 0.00 53 1015.6
20260506111450 22 241 6.4 12.9 0.00 0.00 0.00 53 1015.7
20260506111217 22 242 6.4 12.9 0.00 0.00 0.00 52 1015.7
20260506110450 22 256 8.0 12.9 0.00 0.00 0.00 50 1015.8
20260506110214 22 239 6.4 11.3 0.00 0.00 0.00 50 1015.7
20260506105449 22 231 6.4 12.9 0.00 0.00 0.00 50 1015.7
20260506104950 22 263 4.8 12.9 0.00 0.00 0.00 49 1015.7
20260506104450 22 230 6.4 12.9 0.00 0.00 0.00 49 1015.8
20260506103948 22 271 6.4 12.9 0.00 0.00 0.00 48 1015.8
20260506103448 22 203 6.4 16.1 0.00 0.00 0.00 47 1015.8
20260506102948 22 94 8.0 16.1 0.00 0.00 0.00 47 1015.9
20260506102448 22 235 8.0 16.1 0.00 0.00 0.00 42 1015.9
20260506101948 22 201 6.4 14.5 0.00 0.00 0.00 43 1016.0
20260506101705 22 257 4.8 11.3 0.00 0.00 0.00 40 1016.0
20260506100948 22 265 4.8 12.9 0.00 0.00 0.00 39 1016.0
20260506100448 22 288 4.8 12.9 0.00 0.00 0.00 40 1016.1
20260506100215 22 266 3.2 9.7 0.00 0.00 0.00 40 1016.2
20260506095448 22 236 4.8 11.3 0.00 0.00 0.00 40 1016.2
20260506094948 22 219 4.8 11.3 0.00 0.00 0.00 42 1016.3
20260506094706 22 229 3.2 9.7 0.00 0.00 0.00 45 1016.3
20260506094214 22 216 3.2 9.7 0.00 0.00 0.00 45 1016.3
20260506093444 22 209 4.8 11.3 0.00 0.00 0.00 45 1016.3
20260506092943 21 212 4.8 11.3 0.00 0.00 0.00 43 1016.2
20260506092443 21 264 4.8 8.0 0.00 0.00 0.00 47 1016.2
20260506091943 21 258 4.8 8.0 0.00 0.00 0.00 48 1016.2
20260506091701 21 253 4.8 8.0 0.00 0.00 0.00 52 1016.2
20260506090943 21 269 4.8 9.7 0.00 0.00 0.00 51 1016.3
20260506090443 21 259 6.4 9.7 0.00 0.00 0.00 51 1016.2
20260506085944 21 320 6.4 9.7 0.00 0.00 0.00 51 1016.2
20260506085444 21 302 4.8 8.0 0.00 0.00 0.00 51 1016.2
20260506084943 21 272 4.8 9.7 0.00 0.00 0.00 53 1016.2
20260506084443 21 271 4.8 9.7 0.00 0.00 0.00 53 1016.3
20260506084203 21 245 3.2 8.0 0.00 0.00 0.00 55 1016.3
20260506083443 21 255 3.2 8.0 0.00 0.00 0.00 56 1016.2
20260506082941 20 215 3.2 6.4 0.00 0.00 0.00 56 1016.3
20260506082704 20 261 3.2 6.4 0.00 0.00 0.00 57 1016.2
20260506081939 20 210 3.2 6.4 0.00 0.00 0.00 58 1016.2
20260506081437 20 201 3.2 6.4 0.00 0.00 0.00 60 1016.2
20260506080937 20 212 3.2 6.4 0.00 0.00 0.00 62 1016.2
20260506080653 20 272 3.2 6.4 0.00 0.00 0.00 61 1016.1